Weather History for KM25 - January, 2014

Change the Weather History Date:

Sunday, January 19, 2014

  Actual Average (KPAH) Record (KPAH)
Temperature  
Mean Temperature 38 °F 34 °F  
Max Temperature 44 °F 43 °F 69 °F (1952)
Min Temperature 32 °F 26 °F -13 °F (1994)
Degree Days  
Heating Degree Days 27 31  
Month to date heating degree days 586  
Since 1 July heating degree days 2217  
Cooling Degree Days 0 0  
Month to date cooling degree days 0  
Year to date cooling degree days 0  
Moisture  
Dew Point 27 °F    
Average Humidity 68    
Maximum Humidity 87    
Minimum Humidity 46    
Precipitation  
Precipitation 0.00 in 0.12 in 2.09 in (1990)
Month to date precipitation 2.24  
Year to date precipitation 2.24  
Snow  
Snow 0.00 in 0.10 in 3.40 in (1985)
Month to date snowfall 1.7  
Since 1 July snowfall 4.0  
Snow Depth -    
Sea Level Pressure  
Sea Level Pressure 30.03 in    
Wind  
Wind Speed 11 mph (West)    
Max Wind Speed 17 mph    
Max Gust Speed 24 mph    
Visibility 10 miles    
Events      
T = Trace of Precipitation, MM = Missing Value Source: NWS Daily Summary

Daily Weather History Graph

Daily Weather History Graph

Search for Another Location

Airport or City:

Trip Planner

Search our weather history database for the weather conditions in past years. The results will help you decide how hot, cold, wet, or windy it might be!

Date:

Astronomy

Jan. 19, 2014 Rise Set
Actual Time 7:04 AM CST 5:05 PM CST
Civil Twilight 6:36 AM CST 5:34 PM CST
Nautical Twilight 6:04 AM CST 6:05 PM CST
Astronomical Twilight 5:34 AM CST 6:36 PM CST
Moon 8:37 PM CST (1/19) 8:40 AM CST (1/19)
Length of Visible Light 10h 57m
Length of Day
10h 01m
Waning Gibbous, 89% of the Moon is Illuminated
Jan 19
Waning Gibbous
Jan 23
Last Quarter
Jan 30
New
Feb 6
First Quarter
Feb 14
Full

Hourly Weather History & Observations

Time (CST) Temp. Windchill Dew Point Humidity Pressure Visibility Wind Dir Wind Speed Gust Speed Precip Events Conditions
12:15 AM 37.4 °F 29.3 °F 32.0 °F 81% 29.90 in 10.0 mi NW 12.7 mph 16.1 mph N/A   Overcast
12:35 AM 37.4 °F 28.9 °F 32.0 °F 81% 29.91 in 10.0 mi NW 13.8 mph 17.3 mph N/A   Overcast
12:55 AM 37.4 °F 30.3 °F 32.0 °F 81% 29.92 in 10.0 mi NW 10.4 mph - N/A   Overcast
1:15 AM 35.6 °F 27.1 °F 30.2 °F 81% 29.93 in 10.0 mi NNW 12.7 mph - N/A   Overcast
1:35 AM 35.6 °F 27.1 °F 30.2 °F 81% 29.94 in 10.0 mi NNW 12.7 mph 19.6 mph N/A   Overcast
1:55 AM 35.6 °F 26.2 °F 30.2 °F 81% 29.95 in 10.0 mi NW 15.0 mph 21.9 mph N/A   Overcast
2:15 AM 35.6 °F 27.1 °F 30.2 °F 81% 29.97 in 10.0 mi NNW 12.7 mph 23.0 mph N/A   Overcast
2:35 AM 35.6 °F 26.2 °F 30.2 °F 81% 29.98 in 10.0 mi NW 15.0 mph - N/A   Overcast
2:55 AM 33.8 °F 23.2 °F 30.2 °F 87% 30.00 in 10.0 mi NW 17.3 mph 24.2 mph N/A   Overcast
3:15 AM 33.8 °F 24.3 °F 30.2 °F 87% 30.01 in 10.0 mi NW 13.8 mph - N/A   Overcast
3:35 AM 33.8 °F 23.5 °F 28.4 °F 81% 30.02 in 10.0 mi NW 16.1 mph 20.7 mph N/A   Overcast
3:55 AM 33.8 °F 24.8 °F 28.4 °F 81% 30.03 in 10.0 mi NW 12.7 mph 19.6 mph N/A   Overcast
4:15 AM 33.8 °F 27.0 °F 28.4 °F 81% 30.03 in 10.0 mi WNW 8.1 mph 18.4 mph N/A   Overcast
4:35 AM 33.8 °F 25.8 °F 28.4 °F 81% 30.03 in 10.0 mi WNW 10.4 mph - N/A   Overcast
4:55 AM 33.8 °F 24.8 °F 28.4 °F 81% 30.05 in 10.0 mi NW 12.7 mph 19.6 mph N/A   Overcast
5:15 AM 33.8 °F 25.3 °F 28.4 °F 81% 30.06 in 10.0 mi NW 11.5 mph - N/A   Overcast
5:35 AM 32.0 °F 23.0 °F 28.4 °F 87% 30.06 in 10.0 mi NNW 11.5 mph - N/A   Overcast
5:55 AM 32.0 °F 26.4 °F 28.4 °F 87% 30.08 in 10.0 mi NW 5.8 mph - N/A   Overcast
6:15 AM 32.0 °F 26.4 °F 26.6 °F 80% 30.08 in 10.0 mi NNW 5.8 mph - N/A   Overcast
6:35 AM 32.0 °F 26.4 °F 26.6 °F 80% 30.08 in 10.0 mi NW 5.8 mph - N/A   Overcast
6:55 AM 32.0 °F 23.0 °F 24.8 °F 75% 30.09 in 10.0 mi NNW 11.5 mph - N/A   Overcast
7:15 AM 32.0 °F 25.6 °F 24.8 °F 75% 30.09 in 10.0 mi NNW 6.9 mph - N/A   Overcast
7:35 AM 32.0 °F 26.4 °F 24.8 °F 75% 30.09 in 10.0 mi NNW 5.8 mph - N/A   Overcast
7:55 AM 32.0 °F 28.7 °F 23.0 °F 69% 30.10 in 10.0 mi NNW 3.5 mph - N/A   Overcast
8:15 AM 32.0 °F - 24.8 °F 75% 30.10 in 10.0 mi Calm Calm - N/A   Overcast
8:35 AM 32.0 °F 28.7 °F 24.8 °F 75% 30.12 in 10.0 mi NW 3.5 mph - N/A   Overcast
8:55 AM 32.0 °F 27.5 °F 24.8 °F 75% 30.13 in 10.0 mi WNW 4.6 mph - N/A   Scattered Clouds
9:15 AM 32.0 °F 25.6 °F 24.8 °F 75% 30.13 in 10.0 mi West 6.9 mph - N/A   Clear
9:35 AM 32.0 °F 24.8 °F 24.8 °F 75% 30.14 in 10.0 mi West 8.1 mph - N/A   Clear
9:55 AM 33.8 °F 26.4 °F 24.8 °F 70% 30.15 in 10.0 mi West 9.2 mph - N/A   Clear
10:15 AM 33.8 °F 27.0 °F 24.8 °F 70% 30.16 in 10.0 mi West 8.1 mph - N/A   Clear
10:35 AM 35.6 °F 28.6 °F 26.6 °F 70% 30.15 in 10.0 mi West 9.2 mph - N/A   Clear
10:55 AM 35.6 °F 29.9 °F 26.6 °F 70% 30.15 in 10.0 mi West 6.9 mph - N/A   Clear
11:15 AM 35.6 °F 29.9 °F 26.6 °F 70% 30.14 in 10.0 mi SW 6.9 mph - N/A   Clear
11:35 AM 37.4 °F 30.8 °F 26.6 °F 65% 30.13 in 10.0 mi WSW 9.2 mph - N/A   Clear
11:55 AM 37.4 °F 30.8 °F 26.6 °F 65% 30.11 in 10.0 mi WSW 9.2 mph - N/A   Clear
12:15 PM 39.2 °F 32.5 °F 26.6 °F 61% 30.11 in 10.0 mi SW 10.4 mph 17.3 mph N/A   Clear
12:35 PM 41.0 °F 34.7 °F 26.6 °F 57% 30.10 in 10.0 mi SW 10.4 mph 16.1 mph N/A   Clear
12:55 PM 41.0 °F 33.9 °F 26.6 °F 57% 30.09 in 10.0 mi WSW 12.7 mph 17.3 mph N/A   Clear
1:15 PM 41.0 °F 34.7 °F 26.6 °F 57% 30.07 in 10.0 mi SW 10.4 mph - N/A   Clear
1:35 PM 42.8 °F 37.0 °F 26.6 °F 53% 30.05 in 10.0 mi SW 10.4 mph - N/A   Clear
1:55 PM 42.8 °F 37.0 °F 26.6 °F 53% 30.05 in 10.0 mi SW 10.4 mph - N/A   Clear
2:15 PM 42.8 °F 36.2 °F 26.6 °F 53% 30.04 in 10.0 mi SW 12.7 mph 17.3 mph N/A   Clear
2:35 PM 42.8 °F 37.0 °F 26.6 °F 53% 30.04 in 10.0 mi SW 10.4 mph - N/A   Clear
2:55 PM 42.8 °F 36.2 °F 26.6 °F 53% 30.04 in 10.0 mi SW 12.7 mph 18.4 mph N/A   Clear
3:15 PM 42.8 °F 35.4 °F 26.6 °F 53% 30.03 in 10.0 mi SSW 15.0 mph 20.7 mph N/A   Clear
3:35 PM 42.8 °F 35.8 °F 26.6 °F 53% 30.03 in 10.0 mi SW 13.8 mph 20.7 mph N/A   Clear
3:55 PM 44.6 °F 38.8 °F 24.8 °F 46% 30.02 in 10.0 mi SW 11.5 mph 18.4 mph N/A   Clear
4:15 PM 42.8 °F 35.4 °F 26.6 °F 53% 30.02 in 10.0 mi SSW 15.0 mph 21.9 mph N/A   Clear
4:35 PM 42.8 °F 37.0 °F 26.6 °F 53% 30.02 in 10.0 mi SW 10.4 mph 17.3 mph N/A   Clear
4:55 PM 42.8 °F 37.0 °F 26.6 °F 53% 30.02 in 10.0 mi SW 10.4 mph 18.4 mph N/A   Clear
5:15 PM 41.0 °F 35.8 °F 26.6 °F 57% 30.01 in 10.0 mi SW 8.1 mph 17.3 mph N/A   Clear
5:35 PM 41.0 °F 34.7 °F 26.6 °F 57% 30.00 in 10.0 mi SW 10.4 mph - N/A   Clear
5:55 PM 41.0 °F 34.7 °F 26.6 °F 57% 29.99 in 10.0 mi SSW 10.4 mph - N/A   Clear
6:15 PM 39.2 °F 33.0 °F 26.6 °F 61% 29.99 in 10.0 mi SSW 9.2 mph - N/A   Clear
6:35 PM 39.2 °F 33.0 °F 26.6 °F 61% 29.99 in 10.0 mi SW 9.2 mph - N/A   Clear
7:15 PM 37.4 °F 29.8 °F 26.6 °F 65% 29.98 in 10.0 mi SW 11.5 mph - N/A   Clear
7:35 PM 39.2 °F 32.0 °F 26.6 °F 61% 29.98 in 10.0 mi SW 11.5 mph 16.1 mph N/A   Clear
7:55 PM 39.2 °F 31.6 °F 26.6 °F 61% 29.96 in 10.0 mi SW 12.7 mph - N/A   Clear
8:15 PM 39.2 °F 30.8 °F 26.6 °F 61% 29.96 in 10.0 mi SSW 15.0 mph 18.4 mph N/A   Clear
8:35 PM 39.2 °F 30.5 °F 26.6 °F 61% 29.93 in 10.0 mi SSW 16.1 mph 20.7 mph N/A   Clear
8:55 PM 39.2 °F 31.6 °F 26.6 °F 61% 29.93 in 10.0 mi SW 12.7 mph - N/A   Clear
9:15 PM 39.2 °F 30.8 °F 26.6 °F 61% 29.94 in 10.0 mi SW 15.0 mph 20.7 mph N/A   Clear
9:35 PM 41.0 °F 33.9 °F 26.6 °F 57% 29.95 in 10.0 mi SW 12.7 mph 18.4 mph N/A   Clear
9:55 PM 41.0 °F 33.1 °F 26.6 °F 57% 29.95 in 10.0 mi SW 15.0 mph 18.4 mph N/A   Clear
10:15 PM 41.0 °F 33.9 °F 26.6 °F 57% 29.95 in 10.0 mi SW 12.7 mph - N/A   Clear
10:35 PM 39.2 °F 31.2 °F 26.6 °F 61% 29.95 in 10.0 mi SW 13.8 mph 18.4 mph N/A   Clear
10:55 PM 39.2 °F 31.2 °F 26.6 °F 61% 29.94 in 10.0 mi SW 13.8 mph 18.4 mph N/A   Clear
11:15 PM 37.4 °F 30.3 °F 26.6 °F 65% 29.94 in 10.0 mi SW 10.4 mph - N/A   Clear
11:35 PM 37.4 °F 30.3 °F 26.6 °F 65% 29.94 in 10.0 mi SW 10.4 mph - N/A   Clear
11:55 PM 37.4 °F 30.8 °F 28.4 °F 70% 29.93 in 10.0 mi SW 9.2 mph - N/A   Clear